This is the latest recevied weather packets stored in our database for station/object K8RRT. If no packets are shown the sender has not sent any weather packets the latest 10 day(s).
| Time | Temp. | Humidity | Pressure | Rain* | Wind** | Luminosity | Snow |
|---|---|---|---|---|---|---|---|
| 1777764755 | 11.11° C | 50% | 1011.7 hPa | 0 mm | - | 29 W/m² | - |
| 1777764451 | 11.11° C | 50% | 1011.6 hPa | 0 mm | - | 26 W/m² | - |
| 1777764148 | 11.67° C | 48% | 1011.5 hPa | 0 mm | - | 21 W/m² | - |
| 1777763845 | 11.67° C | 49% | 1011.6 hPa | 0 mm | - | 25 W/m² | - |
| 1777763543 | 11.67° C | 49% | 1011.5 hPa | 0 mm | - | 39 W/m² | - |
| 1777763241 | 11.67° C | 48% | 1011.2 hPa | 0 mm | - | 42 W/m² | - |
| 1777762939 | 11.67° C | 47% | 1011.5 hPa | 0 mm | - | 29 W/m² | - |
| 1777762635 | 11.67° C | 47% | 1011.2 hPa | 0 mm | - | 35 W/m² | - |
| 1777762332 | 12.22° C | 49% | 1011.5 hPa | 0 mm | - | 55 W/m² | - |
| 1777762028 | 12.22° C | 48% | 1011.2 hPa | 0 mm | - | 75 W/m² | - |
| 1777761725 | 12.22° C | 50% | 1011.4 hPa | 0 mm | - | 89 W/m² | - |
| 1777761423 | 12.22° C | 47% | 1011.2 hPa | 0 mm | - | 100 W/m² | - |
| 1777761121 | 12.22° C | 46% | 1011.3 hPa | 0 mm | - | 117 W/m² | - |
| 1777760818 | 12.22° C | 47% | 1011.3 hPa | 0 mm | - | 119 W/m² | - |
| 1777760515 | 12.22° C | 46% | 1011.2 hPa | 0 mm | - | 117 W/m² | - |
| 1777760210 | 12.22° C | 47% | 1011.2 hPa | 0 mm | - | 121 W/m² | - |
| 1777759907 | 12.22° C | 47% | 1011.2 hPa | 0 mm | - | 112 W/m² | - |
| 1777759604 | 12.22° C | 45% | 1011.2 hPa | 0 mm | - | 102 W/m² | - |
| 1777759300 | 12.78° C | 46% | 1011.1 hPa | 0 mm | - | 232 W/m² | - |
| 1777758997 | 13.33° C | 45% | 1011 hPa | 0 mm | - | 334 W/m² | - |
| 1777758694 | 13.33° C | 44% | 1011.1 hPa | 0 mm | - | 340 W/m² | - |
| 1777758391 | 12.78° C | 45% | 1011 hPa | 0 mm | - | 288 W/m² | - |
| 1777758088 | 12.78° C | 48% | 1010.9 hPa | 0 mm | - | 150 W/m² | - |
| 1777757785 | 13.33° C | 47% | 1011.1 hPa | 0 mm | - | 374 W/m² | - |
| 1777757483 | 13.89° C | 45% | 1011.1 hPa | 0 mm | - | 451 W/m² | - |
* Rain latest hour (hover to see other rain measurements)
** Current wind speed in m/s (hover to see current wind gust speed)